Weather History for Wolf Creek Pass, CO

Change the Weather History Date:

Thursday, July 18, 2013

  Actual Average (KALS) Record (KALS)
Temperature  
Mean Temperature 49 °F 65 °F  
Max Temperature 59 °F 83 °F 92 °F (1989)
Min Temperature 39 °F 48 °F 38 °F (1987)
Degree Days  
Heating Degree Days 16 1  
Month to date heating degree days 27  
Since 1 June heating degree days 195  
Since 1 July heating degree days 27  
Cooling Degree Days 0 1  
Month to date cooling degree days 18  
Year to date cooling degree days 24  
Since 1 June cooling degree days 24  
Moisture  
Dew Point 41 °F    
Average Humidity 76    
Maximum Humidity 93    
Minimum Humidity 54    
Precipitation  
Precipitation 0.01 in 0.04 in 1.56 in (1971)
Month to date precipitation 0.53  
Year to date precipitation 3.24  
Snow  
Snow 0.00 in 0.00 in 0.00 in (2002)
Month to date snowfall 0.0  
Since 1 June snowfall 0.0  
Since 1 July snowfall 0.0  
Snow Depth -    
Sea Level Pressure  
Sea Level Pressure 30.68 in    
Wind  
Wind Speed - (North)    
Max Wind Speed -    
Max Gust Speed -    
Visibility 10 miles    
Events Rain , Thunderstorm    
T = Trace of Precipitation, MM = Missing Value Source: NWS Daily Summary

Daily Weather History Graph

Daily Weather History Graph

Search for Another Location

Airport:

Trip Planner

Search our weather history database for the weather conditions in past years. The results will help you decide how hot, cold, wet, or windy it might be!

Date:

Astronomy

Jul. 18, 2013 Rise Set
Actual Time 6:00 AM MDT 8:25 PM MDT
Civil Twilight 5:30 AM MDT 8:55 PM MDT
Nautical Twilight 4:53 AM MDT 9:32 PM MDT
Astronomical Twilight 4:12 AM MDT 10:13 PM MDT
Moon 4:26 PM MDT (7/18) 1:52 AM MDT (7/18)
Length of Visible Light 15h 25m
Length of Day
14h 25m
Waxing Gibbous, 78% of the Moon is Illuminated
Jul 18
Waxing Gibbous
Jul 22
Full
Jul 29
Last Quarter
Aug 6
New
Aug 14
First Quarter

Hourly Weather History & Observations

Time (MDT) Temp. Dew Point Humidity Pressure Visibility Wind Dir Wind Speed Gust Speed Precip Events Conditions
12:18 AM 42.8 °F 37.4 °F 81% 30.73 in 10.0 mi North - - N/A   Clear
12:38 AM 42.8 °F 37.4 °F 81% 30.73 in 10.0 mi North - - N/A   Clear
12:58 AM 42.8 °F 37.4 °F 81% 30.73 in 10.0 mi North - - N/A Thunderstorm Clear
1:18 AM 41.0 °F 37.4 °F 87% 30.73 in 10.0 mi North - - N/A   Clear
1:38 AM 41.0 °F 39.2 °F 93% 30.72 in 10.0 mi North - - N/A   Clear
1:58 AM 41.0 °F 39.2 °F 93% 30.72 in 10.0 mi North - - N/A   Clear
2:18 AM 41.0 °F 39.2 °F 93% 30.72 in 10.0 mi North - - N/A   Clear
2:38 AM 41.0 °F 39.2 °F 93% 30.71 in 10.0 mi North - - N/A   Clear
2:58 AM 41.0 °F 39.2 °F 93% 30.71 in 10.0 mi North - - N/A   Clear
3:18 AM 41.0 °F 39.2 °F 93% 30.70 in 10.0 mi North - - N/A   Clear
3:38 AM 39.2 °F 37.4 °F 93% 30.70 in 10.0 mi North - - N/A   Clear
3:58 AM 41.0 °F 37.4 °F 87% 30.70 in 10.0 mi North - - N/A   Scattered Clouds
4:18 AM 41.0 °F 39.2 °F 93% 30.70 in 10.0 mi North - - N/A   Overcast
4:38 AM 41.0 °F 39.2 °F 93% 30.69 in 10.0 mi North - - N/A   Mostly Cloudy
4:58 AM 41.0 °F 37.4 °F 87% 30.69 in 10.0 mi North - - N/A   Scattered Clouds
5:18 AM 42.8 °F 37.4 °F 81% 30.69 in 10.0 mi North - - N/A   Clear
5:38 AM 42.8 °F 37.4 °F 81% 30.69 in 10.0 mi North - - N/A   Clear
5:58 AM 41.0 °F 37.4 °F 87% 30.69 in 10.0 mi North - - N/A   Clear
6:18 AM 42.8 °F 39.2 °F 87% 30.69 in 10.0 mi North - - N/A   Clear
6:38 AM 44.6 °F 39.2 °F 81% 30.69 in 10.0 mi North - - N/A   Clear
6:58 AM 46.4 °F 41.0 °F 81% 30.69 in 10.0 mi North - - N/A   Clear
7:18 AM 46.4 °F 41.0 °F 81% 30.69 in 10.0 mi North - - N/A   Clear
7:38 AM 46.4 °F 41.0 °F 81% 30.69 in 10.0 mi North - - N/A   Clear
7:58 AM 48.2 °F 41.0 °F 76% 30.69 in 10.0 mi North - - N/A   Clear
8:18 AM 50.0 °F 41.0 °F 71% 30.69 in 10.0 mi North - - N/A   Clear
8:38 AM 50.0 °F 41.0 °F 71% 30.69 in 10.0 mi North - - N/A   Clear
8:58 AM 51.8 °F 41.0 °F 67% 30.70 in 10.0 mi North - - N/A   Clear
9:18 AM 53.6 °F 41.0 °F 62% 30.69 in 10.0 mi North - - N/A   Clear
9:38 AM 53.6 °F 42.8 °F 67% 30.69 in 10.0 mi North - - N/A   Clear
9:58 AM 55.4 °F 42.8 °F 63% 30.69 in 10.0 mi North - - N/A   Clear
10:18 AM 55.4 °F 41.0 °F 58% 30.69 in 10.0 mi North - - N/A   Clear
10:38 AM 57.2 °F 42.8 °F 59% 30.69 in 10.0 mi North - - N/A   Scattered Clouds
10:58 AM 59.0 °F 42.8 °F 55% 30.69 in 10.0 mi North - - N/A   Scattered Clouds
11:18 AM 57.2 °F 42.8 °F 59% 30.69 in 10.0 mi North - - N/A   Mostly Cloudy
11:38 AM 55.4 °F 41.0 °F 58% 30.69 in 10.0 mi North - - N/A   Mostly Cloudy
11:58 AM 55.4 °F 42.8 °F 63% 30.69 in 10.0 mi North - - N/A   Mostly Cloudy
12:18 PM 55.4 °F 42.8 °F 63% 30.69 in 10.0 mi North - - N/A   Overcast
12:38 PM 55.4 °F 41.0 °F 58% 30.69 in 10.0 mi North - - N/A   Overcast
12:58 PM 55.4 °F 44.6 °F 67% 30.68 in 10.0 mi North - - N/A Thunderstorm Mostly Cloudy
1:18 PM 53.6 °F 44.6 °F 72% 30.68 in 10.0 mi North - - N/A Thunderstorm Overcast
1:38 PM 55.4 °F 44.6 °F 67% 30.68 in 10.0 mi North - - N/A Thunderstorm Overcast
1:58 PM 53.6 °F 44.6 °F 72% 30.68 in 10.0 mi North - - N/A   Overcast
2:18 PM 53.6 °F 46.4 °F 77% 30.66 in 10.0 mi North - - N/A Thunderstorm Scattered Clouds
2:38 PM 53.6 °F 44.6 °F 72% 30.66 in 10.0 mi North - - N/A Thunderstorm Clear
2:58 PM 55.4 °F 44.6 °F 67% 30.65 in 10.0 mi North - - N/A Thunderstorm Clear
3:18 PM 57.2 °F 44.6 °F 63% 30.64 in 10.0 mi North - - N/A Thunderstorm Clear
3:38 PM 59.0 °F 44.6 °F 59% 30.64 in 10.0 mi North - - N/A   Scattered Clouds
3:58 PM 59.0 °F 44.6 °F 59% 30.64 in 10.0 mi North - - N/A Thunderstorm Clear
4:18 PM 57.2 °F 44.6 °F 63% 30.64 in 10.0 mi North - - N/A Thunderstorm Mostly Cloudy
4:38 PM 53.6 °F 44.6 °F 72% 30.64 in 10.0 mi North - - N/A Thunderstorm Thunderstorm
4:58 PM 53.6 °F 44.6 °F 72% 30.64 in 10.0 mi North - - N/A Thunderstorm Thunderstorm
5:18 PM 53.6 °F 44.6 °F 72% 30.63 in 10.0 mi North - - N/A Thunderstorm Thunderstorm
5:38 PM 51.8 °F 44.6 °F 76% 30.65 in 10.0 mi North - - N/A Thunderstorm Thunderstorm
5:58 PM 48.2 °F 46.4 °F 93% 30.64 in 10.0 mi North - - N/A Thunderstorm Mostly Cloudy
6:18 PM 50.0 °F 44.6 °F 82% 30.64 in 10.0 mi North - - N/A Thunderstorm Scattered Clouds
6:38 PM 50.0 °F 42.8 °F 76% 30.64 in 10.0 mi North - - N/A Thunderstorm Thunderstorm
6:58 PM 50.0 °F 44.6 °F 82% 30.65 in 10.0 mi North - - N/A   Overcast
7:18 PM 46.4 °F 41.0 °F 81% 30.66 in 10.0 mi North - - 0.01 in Rain , Thunderstorm Light Thunderstorms and Rain
7:38 PM 46.4 °F 39.2 °F 76% 30.66 in 10.0 mi North - - 0.01 in Thunderstorm Thunderstorm
7:58 PM 44.6 °F 42.8 °F 93% 30.68 in 10.0 mi North - - 0.01 in Thunderstorm Scattered Clouds
8:18 PM 44.6 °F 42.8 °F 93% 30.67 in 10.0 mi North - - N/A Thunderstorm Thunderstorm
8:38 PM 42.8 °F 41.0 °F 93% 30.66 in 10.0 mi North - - N/A   Overcast
8:58 PM 42.8 °F 41.0 °F 93% 30.65 in 10.0 mi North - - N/A   Overcast
9:18 PM 42.8 °F 41.0 °F 93% 30.66 in 10.0 mi North - - N/A   Overcast
9:38 PM 42.8 °F 39.2 °F 87% 30.67 in 10.0 mi North - - N/A Rain Light Rain
9:58 PM 42.8 °F 37.4 °F 81% 30.67 in 10.0 mi North - - N/A   Light Drizzle
10:18 PM 42.8 °F 37.4 °F 81% 30.67 in 10.0 mi North - - N/A   Overcast
10:38 PM 44.6 °F 37.4 °F 76% 30.68 in 10.0 mi North - - N/A   Overcast
10:58 PM 44.6 °F 35.6 °F 71% 30.67 in 10.0 mi North - - N/A   Overcast
11:18 PM 48.2 °F 35.6 °F 62% 30.67 in 10.0 mi North - - N/A   Overcast
11:38 PM 50.0 °F 33.8 °F 54% 30.67 in 10.0 mi North - - N/A   Mostly Cloudy
11:58 PM 48.2 °F 33.8 °F 58% 30.67 in 10.0 mi North - - N/A   Scattered Clouds